This is the latest recevied weather packets stored in our database for station/object 5B4APJ-13. If no packets are shown the sender has not sent any weather packets the latest 10 day(s).
| Time | Temp. | Humidity | Pressure | Rain* | Wind** | Luminosity | Snow |
|---|---|---|---|---|---|---|---|
| 1777808226 | 14.44° C | 88% | 1008.2 hPa | 0.25 mm | 1.79 m/s, 262° | 54 W/m² | - |
| 1777807926 | 15° C | 87% | 1007.9 hPa | 0.25 mm | 4.02 m/s, 324° | 22 W/m² | - |
| 1777807626 | 15.56° C | 88% | 1007.8 hPa | 0.51 mm | 0.45 m/s, 252° | 43 W/m² | - |
| 1777807326 | 15.56° C | 88% | 1007.8 hPa | 0.51 mm | 1.34 m/s, 247° | 69 W/m² | - |
| 1777807026 | 15.56° C | 88% | 1007.8 hPa | 0.51 mm | 2.68 m/s, 268° | 180 W/m² | - |
| 1777806726 | 15.56° C | 88% | 1007.7 hPa | 0.51 mm | 3.58 m/s, 244° | 276 W/m² | - |
| 1777806426 | 15.56° C | 91% | 1007.7 hPa | 0.51 mm | 1.79 m/s, 255° | 378 W/m² | - |
| 1777806125 | 15° C | 92% | 1007.3 hPa | 0.51 mm | 3.13 m/s, 245° | 458 W/m² | - |
| 1777805825 | 15° C | 93% | 1007.6 hPa | 0.51 mm | 1.79 m/s, 249° | 384 W/m² | - |
| 1777805525 | 15° C | 93% | 1007.4 hPa | 0.25 mm | 0.89 m/s, 205° | 300 W/m² | - |
| 1777805226 | 15° C | 93% | 1007.2 hPa | 0.51 mm | 1.34 m/s, 236° | 191 W/m² | - |
| 1777804926 | 15° C | 92% | 1007.6 hPa | 0.51 mm | 0.89 m/s, 172° | 142 W/m² | - |
| 1777804626 | 15° C | 92% | 1007.6 hPa | 0.51 mm | 1.79 m/s, 247° | 153 W/m² | - |
| 1777804325 | 15° C | 92% | 1007.6 hPa | 0.51 mm | 1.34 m/s, 186° | 178 W/m² | - |
| 1777804026 | 15° C | 92% | 1007.6 hPa | 0.25 mm | 1.34 m/s, 221° | 213 W/m² | - |
| 1777803726 | 14.44° C | 92% | 1007.7 hPa | 0.51 mm | 1.34 m/s, 227° | 238 W/m² | - |
| 1777803426 | 14.44° C | 92% | 1007.6 hPa | 0.51 mm | 1.34 m/s, 246° | 203 W/m² | - |
| 1777803126 | 14.44° C | 92% | 1007.6 hPa | 0.51 mm | 1.34 m/s, 223° | 162 W/m² | - |
| 1777802826 | 14.44° C | 92% | 1007.4 hPa | 0.51 mm | 1.34 m/s, 244° | 104 W/m² | - |
| 1777802525 | 14.44° C | 92% | 1007.4 hPa | 0.76 mm | 2.68 m/s, 158° | 55 W/m² | - |
| 1777802225 | 14.44° C | 92% | 1007.4 hPa | 0.76 mm | 3.58 m/s, 123° | 70 W/m² | - |
| 1777801925 | 14.44° C | 91% | 1007.4 hPa | 0.76 mm | 2.24 m/s, 230° | 48 W/m² | - |
| 1777801624 | 14.44° C | 91% | 1007.3 hPa | 0.51 mm | 1.79 m/s, 254° | 64 W/m² | - |
| 1777801325 | 14.44° C | 91% | 1007 hPa | 0.51 mm | 1.34 m/s, 225° | 90 W/m² | - |
| 1777801025 | 14.44° C | 91% | 1007.2 hPa | 0.51 mm | 0.89 m/s, 230° | 95 W/m² | - |
* Rain latest hour (hover to see other rain measurements)
** Current wind speed in m/s (hover to see current wind gust speed)